SCP
0 0 0 0 0 0 -0 -0 0 0 0 0 -0 -0 -0 -0 -0 0 0 0 0 0 0 0 -0 0 0 0 0 -0 -0 0 -0 0 0 0 0 0 0 0 0 0 0 0 0 0 0
0 0 -0 0 0 0 -0 -0 0 0 0 0 0 -0 -0 -0 -0 -0 0 0 0 0 0 0 0 0 0 0 -0 -0 -0 -0 -0 0 0 0 0 0 0 0 0 0 0 0 0 0 0
0 0 -0 -0 -0 0 0 -0 0 0 0 0 0 -0 -0 -0 -0 -0 0 0 0 0 0 0 0 0 0 0 -0 -0 -0 -0 -0 0 0 0 -0 0 0 0 0 0 0 0 0 0 0
0 0 0 -0 -0 -0 0 0 0 0 0 0 0 0 -0 -0 -0 -0 0 0 0 0 0 0 0 0 0 0 0 -0 0 -0 -0 0 0 0 0 0 0 0 0 0 0 0 0 0 0
0 0 0 -0 -0 -0 -0 0 0 0 0 0 0 0 -0 -0 -0 -0 0 0 0 0 0 0 0 0 0 0 0 0 0 -0 -0 0 0 0 0 0 0 0 0 0 0 0 0 0 0
-0 -0 -0 -0 -0 -0 -0 0 -0 0 0 0 0 0 0 -0 -0 -0 0 0 0 0 0 0 0 0 0 0 0 0 0 0 0 -0 -0 0 0 0 0 0 0 0 0 0 0 0 0
0 0 -0 -0 0 -0 -0 0 0 0 0 0 0 0 0 0 0 0 0 0 0 0 0 0 0 0 0 0 0 0 0 -0 -0 0 0 0 0 -0 0 0 0 0 0 0 0 0 0
0 0 0 -0 -0 0 -0 -0 0 0 0 0 0 0 0 0 0 0 0 0 0 0 0 0 0 0 0 0 0 0 0 0 0 0 0 0 0 0 0 0 0 0 0 0 0 0 0
0 0 -0 -0 -0 -0 0 0 0 0 0 0 0 0 0 0 0 0 0 0 0 0 0 0 0 0 0 0 0 0 0 0 0 0 -0 0 0 0 0 0 0 0 0 0 0 0 0
0 0 -0 -0 -0 -0 -0 0 -0 0 0 0 0 0 0 0 0 0 0 0 0 0 0 0 0 0 0 0 0 0 0 0 0 0 -0 0 0 0 0 0 0 0 0 0 0 0 0
0 0 -0 -0 -0 -0 -0 -0 -0 -0 -0 -0 0 0 0 0 0 0 0 0 0 0 0 0 0 0 0 0 0 0 0 0 0 0 0 0 0 0 0 0 0 0 0 0 0 0 0
0 0 0 -0 -0 -0 -0 -0 -0 -0 -0 0 0 0 0 0 0 0 0 0 0 0 0 0 0 0 0 0 0 0 0 0 0 0 -0 0 0 0 0 0 0 0 0 0 0 0 0
0 0 0 0 -0 -0 -0 -0 -0 -0 -0 -0 0 0 0 0 0 0 0 0 0 0 0 0 0 0 0 0 0 0 0 0 0 0 0 0 0 0 0 0 0 0 0 0 0 0 0
0 0 0 0 0 -0 -0 -0 -0 -0 -0 -0 0 0 0 0 0 0 0 0 0 0 0 0 0 0 0 0 0 0 0 0 0 0 0 0 0 0 0 0 0 0 0 0 0 0 0
0 0 0 0 0 0 -0 -0 -0 -0 -0 -0 0 0 0 0 0 0 0 0 0 0 0 0 0 0 0 0 0 0 0 0 0 0 0 0 0 0 0 0 0 0 0 0 0 0 0
0 0 0 0 0 0 0 -0 -0 -0 -0 0 0 0 0 0 0 0 0 0 0 0 0 0 0 0 0 0 0 0 0 0 0 0 0 0 -0 -0 0 0 0 0 0 0 0 0 0
0 0 0 0 0 0 0 0 0 -0 -0 -0 0 0 0 0 0 0 0 0 0 0 0 0 0 0 0 0 0 0 0 0 0 0 0 0 0 -0 0 -0 -0 -0 -0 0 0 0 0
0 0 0 0 0 0 0 0 0 0 -0 -0 -0 -0 0 0 0 0 0 0 0 0 0 0 0 0 0 0 0 0 0 0 0 0 0 0 0 -0 -0 -0 -0 -0 -0 0 0 0 0
0 0 0 0 0 0 0 0 0 0 0 -0 -0 -0 0 0 0 0 0 0 0 0 0 0 0 0 0 0 0 0 0 0 0 0 0 0 0 -0 -0 -0 -0 0 -0 0 0 0 0
0 0 0 0 0 0 0 0 0 0 0 0 -0 0 0 0 0 0 0 0 0 0 0 0 0 0 0 0 0 0 0 0 0 0 0 0 0 -0 -0 -0 -0 -0 -0 0 0 0 0
0 0 0 0 0 0 0 0 0 0 0 -0 0 0 0 0 0 0 0 0 0 0 0 0 0 0 0 0 0 0 0 0 0 0 0 -0 -0 -0 -0 -0 -0 -0 -0 0 0 0 0
0 0 0 0 0 0 0 0 0 0 0 0 0 0 0 0 0 0 0 0 0 0 0 0 0 0 0 0 0 0 0 0 0 0 0 0 0 -0 0 -0 0 0 -0 0 -0 -0 -0
0 0 0 0 0 0 0 0 0 0 0 0 0 0 0 0 0 0 0 0 0 0 0 0 0 0 0 0 0 0 0 0 0 0 0 0 -0 -0 0 -0 -0 0 0 0 0 0 0
0 0 0 0 0 0 0 0 0 0 0 0 0 0 0 0 0 0 0 0 0 0 0 0 0 0 0 0 0 0 0 0 0 0 0 0 0 0 -0 0 0 0 0 0 0 0 0
0 0 0 0 0 0 0 0 0 0 0 0 0 0 0 0 0 0 0 0 0 0 0 0 0 0 0 0 0 0 0 0 0 0 0 0 0 0 0 0 0 0 0 0 0 0 0
0 0 0 0 0 0 0 0 0 0 0 0 0 0 0 0 0 0 0 0 0 0 0 0 0 0 0 0 0 0 0 0 0 0 0 0 0 0 0 0 0 0 0 0 0 0 0
0 0 0 0 0 0 0 0 0 0 0 0 0 0 0 0 0 0 0 0 0 0 0 0 0 0 0 0 0 0 0 0 0 0 0 0 0 0 0 0 0 0 0 0 0 0 0
0 0 0 0 0 0 0 0 0 0 0 0 0 0 0 0 0 0 0 0 0 0 0 0 0 0 0 0 0 0 0 0 0 0 0 0 0 0 0 0 0 0 0 0 0 0 0
0 0 0 0 0 0 0 0 0 0 0 0 0 0 0 0 0 0 0 0 0 0 0 0 0 0 0 0 0 0 0 0 0 0 0 0 0 0 0 0 0 0 0 0 0 0 0
Wind_Speed_500mb
26 30 34 39 35 34 31 31 25 16 11 6 11 15 13 17 22 30 37 37 30 23 28 24 19 19 13 6 12 21 17 5 6 13 10 13 18 13 2 26 37 30 25 44 14 12 20
23 26 30 35 40 37 33 30 28 21 15 8 8 10 6 13 18 28 30 26 28 21 19 23 17 23 12 7 14 20 12 15 12 7 5 10 8 7 31 25 30 26 32 13 5 4 6
20 24 27 31 36 40 40 32 25 24 18 12 7 6 1 5 13 21 20 30 26 25 28 20 14 7 22 11 14 21 15 14 14 2 13 11 18 12 22 8 29 34 17 4 9 11 6
18 21 25 28 32 35 37 38 32 21 21 16 11 8 8 9 11 18 23 24 32 30 22 31 19 13 5 16 25 16 10 7 14 6 16 8 14 27 15 18 13 17 12 8 5 6 12
17 19 23 27 30 34 36 39 40 28 19 21 17 12 12 15 13 10 23 22 21 33 28 23 27 2 6 17 17 15 13 6 8 9 6 25 9 14 24 8 6 10 10 17 9 13 3
17 20 22 26 30 33 37 41 43 35 22 24 24 18 15 14 13 11 21 25 12 22 30 17 37 5 26 16 12 18 11 7 5 4 8 12 8 8 9 8 10 13 15 18 15 15 9
17 20 23 26 30 33 37 41 43 40 28 27 28 23 15 16 17 15 18 25 15 4 25 17 14 18 15 14 15 7 14 13 7 2 5 11 8 11 13 12 7 15 19 22 15 9 10
15 18 21 24 28 31 36 40 43 44 37 28 29 29 18 17 18 18 19 14 9 7 2 4 4 10 13 18 8 12 16 5 8 3 7 5 9 15 13 15 16 18 26 17 11 10 4
13 16 19 24 26 30 34 37 41 45 43 31 27 33 23 13 16 15 14 12 11 3 7 3 2 9 6 14 12 13 12 3 2 16 18 7 5 11 14 10 20 6 8 14 12 9 8
12 15 18 21 25 29 32 35 40 44 46 38 23 30 23 13 5 7 8 10 8 2 2 13 3 5 4 5 3 9 7 2 2 8 17 5 5 10 7 3 12 3 16 16 21 8 7
8 13 16 20 23 27 30 34 38 43 46 42 25 24 23 12 2 4 9 10 6 3 6 12 7 10 4 3 10 6 16 3 7 10 5 4 14 16 16 10 11 8 10 4 13 10 11
8 10 15 19 21 25 31 33 37 42 46 43 26 21 24 12 7 6 5 3 2 4 4 7 3 11 3 5 3 13 5 4 8 4 10 4 4 6 7 7 10 4 3 5 4 8 4
10 12 14 17 21 25 28 33 37 41 45 45 28 14 31 12 3 5 4 2 5 9 7 12 7 13 14 10 4 4 8 10 7 9 7 7 6 5 11 6 7 6 9 5 8 6 8
11 13 15 17 19 24 28 32 37 41 45 45 27 11 31 19 9 2 1 2 13 8 6 3 5 18 6 13 3 5 5 8 17 13 1 3 7 11 16 7 6 10 4 8 8 7 8
12 13 14 16 18 22 28 31 35 40 44 46 26 9 30 28 12 3 1 10 10 4 2 11 12 8 5 6 3 6 9 7 9 15 7 7 5 3 3 6 6 7 10 5 2 6 6
16 15 14 15 19 24 28 31 33 37 42 44 22 8 20 21 13 5 4 5 3 2 5 7 9 3 10 9 9 8 7 6 10 11 11 9 2 2 1 5 10 4 3 6 3 4 3
17 16 15 15 17 22 26 31 34 36 39 40 16 6 20 14 8 8 6 5 4 3 8 8 9 7 5 7 6 6 7 5 12 13 20 10 4 5 4 2 6 6 2 6 3 4 3
18 15 16 15 14 18 23 27 33 36 37 36 11 4 18 12 4 6 5 7 4 7 2 4 7 7 9 9 10 4 7 6 13 12 11 5 6 3 5 6 6 4 6 5 5 10 1
16 16 15 15 14 16 20 25 31 35 37 35 13 7 12 9 5 4 3 3 4 1 3 6 5 7 7 9 5 8 7 2 11 9 6 10 3 4 3 3 3 8 6 4 7 4 6
13 13 10 11 13 17 20 23 27 31 32 28 10 5 7 10 9 5 2 4 2 1 3 2 4 5 7 4 3 5 2 5 3 7 7 7 5 3 4 2 3 4 6 7 4 2 6
12 12 11 10 10 16 20 21 22 25 24 19 7 2 2 5 5 6 2 1 4 3 4 3 7 6 5 5 4 1 1 7 5 1 3 3 5 5 11 11 2 8 8 11 12 10 2
16 14 14 15 13 15 18 20 22 22 18 7 4 4 5 4 4 7 8 8 5 7 4 7 5 4 6 6 8 6 9 9 8 6 4 6 4 1 7 4 8 11 16 16 12 13 14
27 22 20 19 19 18 16 16 17 19 15 4 5 4 3 3 4 5 2 9 4 2 6 3 6 8 9 3 5 5 6 6 3 5 9 4 6 6 6 7 14 13 10 18 9 7 6
38 33 30 29 26 23 17 13 12 13 13 7 7 3 3 4 3 1 2 2 6 5 4 5 2 5 3 7 13 10 9 7 8 5 1 6 3 2 6 8 5 8 7 6 17 6 15
47 44 38 32 31 32 21 16 13 9 7 9 10 3 1 6 11 3 3 5 2 5 5 3 5 6 5 7 6 6 4 4 4 6 7 2 5 3 3 5 13 3 4 4 7 10 16
54 51 47 42 36 34 27 25 21 13 6 5 6 8 2 6 2 4 8 3 5 5 7 8 8 7 4 4 3 4 5 3 4 5 1 4 6 1 1 3 8 3 8 5 6 8 15
28 34 39 43 42 36 34 34 28 19 12 9 5 6 3 4 5 5 3 3 4 6 3 7 4 4 8 4 5 7 7 3 5 6 8 4 4 8 8 8 12 8 13 7 3 8 18
7 9 14 19 24 34 38 36 32 26 19 16 12 11 7 7 18 18 14 6 5 5 4 2 1 2 4 3 3 6 4 4 2 4 10 12 11 8 6 7 14 24 7 10 9 13 17
4 8 5 5 8 14 20 24 27 22 15 20 22 16 14 15 15 25 40 40 34 26 11 7 3 2 4 3 3 4 4 3 5 6 7 5 9 5 11 9 4 30 2 16 14 17 19
Wind_Direction_500mb
56 49 39 37 32 34 31 27 20 11 0 357 8 15 33 26 17 13 9 4 0 345 349 358 3 336 343 5 356 341 324 351 240 236 238 216 232 234 151 211 205 220 204 240 309 360 295
56 47 38 36 37 34 31 27 24 15 7 351 6 23 67 47 16 9 7 10 15 1 347 351 3 31 346 59 353 345 354 24 349 263 162 163 29 150 306 254 202 207 212 204 302 181 318
53 44 37 31 34 31 30 22 17 15 8 358 328 360 168 17 0 11 24 25 1 28 26 357 6 17 31 25 31 19 34 37 360 53 136 138 29 193 293 223 175 206 187 106 235 147 163
51 41 36 31 30 29 24 21 13 3 6 2 333 285 258 272 318 339 343 322 331 8 353 28 38 30 60 21 24 18 9 43 32 107 164 161 271 275 255 261 184 189 141 181 145 111 151
50 41 32 30 28 25 20 16 10 5 356 1 346 303 271 263 287 320 2 350 341 359 12 16 11 90 25 24 12 8 26 67 61 91 107 168 178 252 270 212 153 182 174 190 142 201 71
38 37 32 27 28 23 19 16 13 11 4 1 351 328 267 261 257 275 343 354 354 32 13 22 24 94 14 359 25 26 11 27 60 139 44 155 245 238 256 200 166 198 183 201 145 181 221
33 25 25 23 23 20 18 16 14 11 2 1 360 344 295 256 245 267 329 357 334 278 32 76 49 71 5 352 18 24 75 77 58 86 29 249 269 210 243 234 5 201 200 203 102 128 195
29 23 18 19 16 16 16 14 11 9 3 354 1 356 339 259 247 265 310 343 326 294 255 34 0 357 4 11 49 33 8 32 44 32 352 327 307 15 334 310 289 289 208 104 76 158 167
21 17 14 9 10 10 13 11 9 7 3 357 355 2 352 327 252 268 298 332 328 261 275 146 329 17 14 34 14 40 59 57 246 94 86 193 297 285 267 274 304 68 176 141 144 196 223
3 7 4 8 3 4 7 8 7 5 4 360 352 359 359 17 41 310 296 326 333 184 82 1 59 23 16 316 33 73 25 350 269 80 173 230 328 349 240 211 12 5 340 149 141 152 145
358 350 356 357 359 357 1 4 5 2 4 2 354 357 360 7 36 301 286 308 325 141 60 327 3 328 20 40 316 318 353 326 3 312 241 348 354 358 44 2 344 355 293 247 157 147 75
338 343 345 347 349 354 355 1 3 3 2 359 356 0 5 12 25 340 325 327 87 38 5 352 331 339 249 109 102 305 230 295 272 34 64 109 242 37 328 309 342 297 310 64 114 95 33
321 330 335 338 341 347 354 357 360 3 1 358 354 358 8 14 289 355 3 101 38 62 241 343 338 332 305 2 69 34 344 49 41 34 3 10 63 123 343 319 229 259 229 53 29 27 231
315 320 323 329 337 342 349 356 358 360 359 357 355 358 10 7 5 14 128 232 59 267 7 19 291 294 36 351 122 0 310 46 27 345 157 118 0 9 341 65 319 315 40 107 174 199 218
294 301 313 322 333 341 345 353 357 357 358 355 353 1 8 9 12 59 19 55 184 20 339 327 281 303 118 85 246 316 84 24 36 9 8 359 48 180 49 358 309 311 38 69 348 218 87
282 290 299 314 330 340 343 348 355 360 358 356 354 16 358 8 33 41 50 105 100 310 315 267 18 4 14 33 348 26 50 11 354 10 340 348 57 8 25 249 237 13 336 36 280 248 142
272 282 291 308 331 342 346 346 352 2 0 360 7 12 356 9 34 44 75 52 65 60 337 326 359 328 18 4 339 40 47 95 6 331 301 353 240 207 261 327 24 20 69 233 231 151 135
259 267 282 302 329 347 349 349 350 357 3 6 24 319 347 355 25 25 52 8 6 38 0 318 297 318 336 351 360 57 46 55 6 312 333 69 292 174 87 114 47 316 310 284 104 325 86
240 255 275 301 324 351 358 355 352 355 360 3 350 311 358 20 34 72 138 110 355 274 46 340 337 13 344 338 323 19 31 30 7 15 20 348 301 339 344 48 169 262 175 321 302 5 257
250 243 263 287 316 334 353 353 354 355 354 357 7 0 353 42 71 8 173 94 142 285 266 292 296 235 266 264 139 335 5 130 7 24 331 312 294 73 189 256 321 230 192 232 306 93 296
260 251 280 288 306 320 332 346 348 351 352 358 8 28 307 320 65 88 235 51 163 206 248 271 217 229 348 289 274 52 275 184 198 109 237 16 307 48 284 277 281 267 280 201 219 246 172
231 245 271 290 297 307 318 335 346 348 351 338 13 355 315 255 266 235 143 194 207 140 230 154 271 47 327 314 4 322 355 33 47 224 273 164 259 281 289 67 262 264 247 245 242 249 270
249 259 267 267 270 282 296 310 329 342 352 344 352 356 332 252 205 269 152 122 133 63 169 260 339 312 240 30 342 316 298 289 322 344 335 332 330 16 281 339 305 292 239 202 199 197 194
244 250 262 265 263 267 279 292 310 336 9 26 11 338 310 276 242 299 103 118 171 197 322 112 293 293 331 326 308 287 251 262 263 204 305 312 275 81 269 338 357 236 61 345 194 200 215
247 249 251 257 257 260 258 268 281 302 345 21 36 72 86 284 7 272 232 258 156 209 215 252 158 214 289 324 298 275 194 228 193 41 298 225 309 262 165 260 271 188 229 149 131 284 202
245 248 252 256 251 253 254 261 259 262 275 342 19 30 94 323 66 350 315 352 293 212 151 163 239 227 179 264 271 267 277 354 188 168 185 288 287 350 213 254 261 143 136 94 106 275 142
209 225 234 239 239 247 249 252 250 254 253 264 303 342 357 295 286 359 294 353 317 305 273 148 174 155 179 238 241 223 243 120 241 219 171 174 199 219 237 257 288 134 149 162 129 241 159
142 174 198 209 221 218 215 221 233 246 252 271 269 283 296 238 273 277 267 257 300 279 307 164 98 209 156 246 246 250 230 200 313 180 176 176 173 207 214 240 271 143 118 178 169 130 166
32 16 289 241 235 230 235 225 211 204 218 239 252 261 278 270 257 272 279 272 265 259 250 234 206 186 236 199 293 353 288 222 238 254 356 251 202 213 194 216 115 191 68 218 192 199 201
Wind_Speed_850mb
26 30 34 39 35 34 31 31 25 16 11 6 11 15 13 17 22 30 37 37 30 23 28 24 19 19 13 6 12 21 17 5 6 13 10 13 18 13 2 26 37 30 25 44 14 12 20
23 26 30 35 40 37 33 30 28 21 15 8 8 10 6 13 18 28 30 26 28 21 19 23 17 23 12 7 14 20 12 15 12 7 5 10 8 7 31 25 30 26 32 13 5 4 6
20 24 27 31 36 40 40 32 25 24 18 12 7 6 1 5 13 21 20 30 26 25 28 20 14 7 22 11 14 21 15 14 14 2 13 11 18 12 22 8 29 34 17 4 9 11 6
18 21 25 28 32 35 37 38 32 21 21 16 11 8 8 9 11 18 23 24 32 30 22 31 19 13 5 16 25 16 10 7 14 6 16 8 14 27 15 18 13 17 12 8 5 6 12
17 19 23 27 30 34 36 39 40 28 19 21 17 12 12 15 13 10 23 22 21 33 28 23 27 2 6 17 17 15 13 6 8 9 6 25 9 14 24 8 6 10 10 17 9 13 3
17 20 22 26 30 33 37 41 43 35 22 24 24 18 15 14 13 11 21 25 12 22 30 17 37 5 26 16 12 18 11 7 5 4 8 12 8 8 9 8 10 13 15 18 15 15 9
17 20 23 26 30 33 37 41 43 40 28 27 28 23 15 16 17 15 18 25 15 4 25 17 14 18 15 14 15 7 14 13 7 2 5 11 8 11 13 12 7 15 19 22 15 9 10
15 18 21 24 28 31 36 40 43 44 37 28 29 29 18 17 18 18 19 14 9 7 2 4 4 10 13 18 8 12 16 5 8 3 7 5 9 15 13 15 16 18 26 17 11 10 4
13 16 19 24 26 30 34 37 41 45 43 31 27 33 23 13 16 15 14 12 11 3 7 3 2 9 6 14 12 13 12 3 2 16 18 7 5 11 14 10 20 6 8 14 12 9 8
12 15 18 21 25 29 32 35 40 44 46 38 23 30 23 13 5 7 8 10 8 2 2 13 3 5 4 5 3 9 7 2 2 8 17 5 5 10 7 3 12 3 16 16 21 8 7
8 13 16 20 23 27 30 34 38 43 46 42 25 24 23 12 2 4 9 10 6 3 6 12 7 10 4 3 10 6 16 3 7 10 5 4 14 16 16 10 11 8 10 4 13 10 11
8 10 15 19 21 25 31 33 37 42 46 43 26 21 24 12 7 6 5 3 2 4 4 7 3 11 3 5 3 13 5 4 8 4 10 4 4 6 7 7 10 4 3 5 4 8 4
10 12 14 17 21 25 28 33 37 41 45 45 28 14 31 12 3 5 4 2 5 9 7 12 7 13 14 10 4 4 8 10 7 9 7 7 6 5 11 6 7 6 9 5 8 6 8
11 13 15 17 19 24 28 32 37 41 45 45 27 11 31 19 9 2 1 2 13 8 6 3 5 18 6 13 3 5 5 8 17 13 1 3 7 11 16 7 6 10 4 8 8 7 8
12 13 14 16 18 22 28 31 35 40 44 46 26 9 30 28 12 3 1 10 10 4 2 11 12 8 5 6 3 6 9 7 9 15 7 7 5 3 3 6 6 7 10 5 2 6 6
16 15 14 15 19 24 28 31 33 37 42 44 22 8 20 21 13 5 4 5 3 2 5 7 9 3 10 9 9 8 7 6 10 11 11 9 2 2 1 5 10 4 3 6 3 4 3
17 16 15 15 17 22 26 31 34 36 39 40 16 6 20 14 8 8 6 5 4 3 8 8 9 7 5 7 6 6 7 5 12 13 20 10 4 5 4 2 6 6 2 6 3 4 3
18 15 16 15 14 18 23 27 33 36 37 36 11 4 18 12 4 6 5 7 4 7 2 4 7 7 9 9 10 4 7 6 13 12 11 5 6 3 5 6 6 4 6 5 5 10 1
16 16 15 15 14 16 20 25 31 35 37 35 13 7 12 9 5 4 3 3 4 1 3 6 5 7 7 9 5 8 7 2 11 9 6 10 3 4 3 3 3 8 6 4 7 4 6
13 13 10 11 13 17 20 23 27 31 32 28 10 5 7 10 9 5 2 4 2 1 3 2 4 5 7 4 3 5 2 5 3 7 7 7 5 3 4 2 3 4 6 7 4 2 6
12 12 11 10 10 16 20 21 22 25 24 19 7 2 2 5 5 6 2 1 4 3 4 3 7 6 5 5 4 1 1 7 5 1 3 3 5 5 11 11 2 8 8 11 12 10 2
16 14 14 15 13 15 18 20 22 22 18 7 4 4 5 4 4 7 8 8 5 7 4 7 5 4 6 6 8 6 9 9 8 6 4 6 4 1 7 4 8 11 16 16 12 13 14
27 22 20 19 19 18 16 16 17 19 15 4 5 4 3 3 4 5 2 9 4 2 6 3 6 8 9 3 5 5 6 6 3 5 9 4 6 6 6 7 14 13 10 18 9 7 6
38 33 30 29 26 23 17 13 12 13 13 7 7 3 3 4 3 1 2 2 6 5 4 5 2 5 3 7 13 10 9 7 8 5 1 6 3 2 6 8 5 8 7 6 17 6 15
47 44 38 32 31 32 21 16 13 9 7 9 10 3 1 6 11 3 3 5 2 5 5 3 5 6 5 7 6 6 4 4 4 6 7 2 5 3 3 5 13 3 4 4 7 10 16
54 51 47 42 36 34 27 25 21 13 6 5 6 8 2 6 2 4 8 3 5 5 7 8 8 7 4 4 3 4 5 3 4 5 1 4 6 1 1 3 8 3 8 5 6 8 15
28 34 39 43 42 36 34 34 28 19 12 9 5 6 3 4 5 5 3 3 4 6 3 7 4 4 8 4 5 7 7 3 5 6 8 4 4 8 8 8 12 8 13 7 3 8 18
7 9 14 19 24 34 38 36 32 26 19 16 12 11 7 7 18 18 14 6 5 5 4 2 1 2 4 3 3 6 4 4 2 4 10 12 11 8 6 7 14 24 7 10 9 13 17
4 8 5 5 8 14 20 24 27 22 15 20 22 16 14 15 15 25 40 40 34 26 11 7 3 2 4 3 3 4 4 3 5 6 7 5 9 5 11 9 4 30 2 16 14 17 19
Wind_Direction_850mb
56 49 39 37 32 34 31 27 20 11 0 357 8 15 33 26 17 13 9 4 0 345 349 358 3 336 343 5 356 341 324 351 240 236 238 216 232 234 151 211 205 220 204 240 309 360 295
56 47 38 36 37 34 31 27 24 15 7 351 6 23 67 47 16 9 7 10 15 1 347 351 3 31 346 59 353 345 354 24 349 263 162 163 29 150 306 254 202 207 212 204 302 181 318
53 44 37 31 34 31 30 22 17 15 8 358 328 360 168 17 0 11 24 25 1 28 26 357 6 17 31 25 31 19 34 37 360 53 136 138 29 193 293 223 175 206 187 106 235 147 163
51 41 36 31 30 29 24 21 13 3 6 2 333 285 258 272 318 339 343 322 331 8 353 28 38 30 60 21 24 18 9 43 32 107 164 161 271 275 255 261 184 189 141 181 145 111 151
50 41 32 30 28 25 20 16 10 5 356 1 346 303 271 263 287 320 2 350 341 359 12 16 11 90 25 24 12 8 26 67 61 91 107 168 178 252 270 212 153 182 174 190 142 201 71
38 37 32 27 28 23 19 16 13 11 4 1 351 328 267 261 257 275 343 354 354 32 13 22 24 94 14 359 25 26 11 27 60 139 44 155 245 238 256 200 166 198 183 201 145 181 221
33 25 25 23 23 20 18 16 14 11 2 1 360 344 295 256 245 267 329 357 334 278 32 76 49 71 5 352 18 24 75 77 58 86 29 249 269 210 243 234 5 201 200 203 102 128 195
29 23 18 19 16 16 16 14 11 9 3 354 1 356 339 259 247 265 310 343 326 294 255 34 0 357 4 11 49 33 8 32 44 32 352 327 307 15 334 310 289 289 208 104 76 158 167
21 17 14 9 10 10 13 11 9 7 3 357 355 2 352 327 252 268 298 332 328 261 275 146 329 17 14 34 14 40 59 57 246 94 86 193 297 285 267 274 304 68 176 141 144 196 223
3 7 4 8 3 4 7 8 7 5 4 360 352 359 359 17 41 310 296 326 333 184 82 1 59 23 16 316 33 73 25 350 269 80 173 230 328 349 240 211 12 5 340 149 141 152 145
358 350 356 357 359 357 1 4 5 2 4 2 354 357 360 7 36 301 286 308 325 141 60 327 3 328 20 40 316 318 353 326 3 312 241 348 354 358 44 2 344 355 293 247 157 147 75
338 343 345 347 349 354 355 1 3 3 2 359 356 0 5 12 25 340 325 327 87 38 5 352 331 339 249 109 102 305 230 295 272 34 64 109 242 37 328 309 342 297 310 64 114 95 33
321 330 335 338 341 347 354 357 360 3 1 358 354 358 8 14 289 355 3 101 38 62 241 343 338 332 305 2 69 34 344 49 41 34 3 10 63 123 343 319 229 259 229 53 29 27 231
315 320 323 329 337 342 349 356 358 360 359 357 355 358 10 7 5 14 128 232 59 267 7 19 291 294 36 351 122 0 310 46 27 345 157 118 0 9 341 65 319 315 40 107 174 199 218
294 301 313 322 333 341 345 353 357 357 358 355 353 1 8 9 12 59 19 55 184 20 339 327 281 303 118 85 246 316 84 24 36 9 8 359 48 180 49 358 309 311 38 69 348 218 87
282 290 299 314 330 340 343 348 355 360 358 356 354 16 358 8 33 41 50 105 100 310 315 267 18 4 14 33 348 26 50 11 354 10 340 348 57 8 25 249 237 13 336 36 280 248 142
272 282 291 308 331 342 346 346 352 2 0 360 7 12 356 9 34 44 75 52 65 60 337 326 359 328 18 4 339 40 47 95 6 331 301 353 240 207 261 327 24 20 69 233 231 151 135
259 267 282 302 329 347 349 349 350 357 3 6 24 319 347 355 25 25 52 8 6 38 0 318 297 318 336 351 360 57 46 55 6 312 333 69 292 174 87 114 47 316 310 284 104 325 86
240 255 275 301 324 351 358 355 352 355 360 3 350 311 358 20 34 72 138 110 355 274 46 340 337 13 344 338 323 19 31 30 7 15 20 348 301 339 344 48 169 262 175 321 302 5 257
250 243 263 287 316 334 353 353 354 355 354 357 7 0 353 42 71 8 173 94 142 285 266 292 296 235 266 264 139 335 5 130 7 24 331 312 294 73 189 256 321 230 192 232 306 93 296
260 251 280 288 306 320 332 346 348 351 352 358 8 28 307 320 65 88 235 51 163 206 248 271 217 229 348 289 274 52 275 184 198 109 237 16 307 48 284 277 281 267 280 201 219 246 172
231 245 271 290 297 307 318 335 346 348 351 338 13 355 315 255 266 235 143 194 207 140 230 154 271 47 327 314 4 322 355 33 47 224 273 164 259 281 289 67 262 264 247 245 242 249 270
249 259 267 267 270 282 296 310 329 342 352 344 352 356 332 252 205 269 152 122 133 63 169 260 339 312 240 30 342 316 298 289 322 344 335 332 330 16 281 339 305 292 239 202 199 197 194
244 250 262 265 263 267 279 292 310 336 9 26 11 338 310 276 242 299 103 118 171 197 322 112 293 293 331 326 308 287 251 262 263 204 305 312 275 81 269 338 357 236 61 345 194 200 215
247 249 251 257 257 260 258 268 281 302 345 21 36 72 86 284 7 272 232 258 156 209 215 252 158 214 289 324 298 275 194 228 193 41 298 225 309 262 165 260 271 188 229 149 131 284 202
245 248 252 256 251 253 254 261 259 262 275 342 19 30 94 323 66 350 315 352 293 212 151 163 239 227 179 264 271 267 277 354 188 168 185 288 287 350 213 254 261 143 136 94 106 275 142
209 225 234 239 239 247 249 252 250 254 253 264 303 342 357 295 286 359 294 353 317 305 273 148 174 155 179 238 241 223 243 120 241 219 171 174 199 219 237 257 288 134 149 162 129 241 159
142 174 198 209 221 218 215 221 233 246 252 271 269 283 296 238 273 277 267 257 300 279 307 164 98 209 156 246 246 250 230 200 313 180 176 176 173 207 214 240 271 143 118 178 169 130 166
32 16 289 241 235 230 235 225 211 204 218 239 252 261 278 270 257 272 279 272 265 259 250 234 206 186 236 199 293 353 288 222 238 254 356 251 202 213 194 216 115 191 68 218 192 199 201